User: anonymous   Login
Location: Goheenville
(40.9070°N, 79.3720°W)
Time: 21:30:56
(UTC-04:00)
Language:

Cosmos 1727 Rocket - Orbit

View from above orbital plane
View from above orbital plane
View from above satellite
View from above satellite

Ground track
Ground track

The orbit data is extracted from the following two-line orbital elements,

1 16511U 86008B   16272.95170869 -.00000024 +00000-0 -40726-4 0  9990
2 16511 082.9441 053.6476 0022995 293.5997 186.1208 13.75807951540096
Epoch (UTC): 28 September 2016 22:50:27
Eccentricity: 0.0022995
inclination: 82.9441°
perigee height: 962 km
apogee height: 996 km
right ascension of ascending node: 53.6476°
argument of perigee: 293.5997°
revolutions per day: 13.75807951
mean anomaly at epoch: 186.1208°
orbit number at epoch: 54009

The dashed part of the orbit path shows where the satellite is in the earth's shadow,  

DLR